TimeEDT,TemperatureF,Dew PointF,Humidity,Sea Level PressureIn,VisibilityMPH,Wind Direction,Wind SpeedMPH,Gust SpeedMPH,PrecipitationIn,Events,Conditions,WindDirDegrees,DateUTC
12:15 AM,36.7,22.6,57,29.78,10.0,Calm,Calm,-,N/A,,Overcast,0,2013-03-27 04:15:00
12:35 AM,36.7,22.3,56,29.78,10.0,Calm,Calm,-,N/A,,Overcast,0,2013-03-27 04:35:00
12:55 AM,36.7,22.8,57,29.78,10.0,Calm,Calm,-,N/A,,Overcast,0,2013-03-27 04:55:00
1:15 AM,36.7,23.0,58,29.77,10.0,Calm,Calm,-,N/A,,Overcast,0,2013-03-27 05:15:00
1:35 AM,36.7,23.0,58,29.78,10.0,Calm,Calm,-,N/A,,Overcast,0,2013-03-27 05:35:00
1:55 AM,36.7,23.4,59,29.77,10.0,Calm,Calm,-,N/A,,Overcast,0,2013-03-27 05:55:00
2:15 AM,36.7,23.0,58,29.77,10.0,Calm,Calm,-,N/A,,Overcast,0,2013-03-27 06:15:00
2:35 AM,36.7,22.8,57,29.77,10.0,Calm,Calm,-,N/A,,Overcast,0,2013-03-27 06:35:00
2:55 AM,36.7,22.8,57,29.77,10.0,Calm,Calm,-,N/A,,Overcast,0,2013-03-27 06:55:00
3:15 AM,36.7,22.8,57,29.77,10.0,Calm,Calm,-,N/A,,Overcast,0,2013-03-27 07:15:00
3:55 AM,36.7,23.7,59,29.77,10.0,Calm,Calm,-,N/A,,Overcast,0,2013-03-27 07:55:00
4:15 AM,36.7,23.5,59,29.77,10.0,Calm,Calm,-,N/A,,Mostly Cloudy,0,2013-03-27 08:15:00
4:35 AM,36.7,23.9,60,29.78,10.0,Calm,Calm,-,N/A,,Scattered Clouds,0,2013-03-27 08:35:00
4:55 AM,34.9,23.2,62,29.78,10.0,Calm,Calm,-,N/A,,Scattered Clouds,0,2013-03-27 08:55:00
5:15 AM,32.7,22.8,67,29.78,10.0,Calm,Calm,-,N/A,,Clear,0,2013-03-27 09:15:00
5:35 AM,33.8,24.4,69,29.79,10.0,Calm,Calm,-,N/A,,Scattered Clouds,0,2013-03-27 09:35:00
5:55 AM,31.6,23.2,71,29.79,10.0,Calm,Calm,-,N/A,,Clear,0,2013-03-27 09:55:00
6:15 AM,32.0,23.4,70,29.80,10.0,Calm,Calm,-,N/A,,Clear,0,2013-03-27 10:15:00
6:35 AM,31.5,24.3,75,29.80,10.0,Calm,Calm,-,N/A,,Clear,0,2013-03-27 10:35:00
6:55 AM,32.7,24.4,72,29.81,10.0,Calm,Calm,-,N/A,,Clear,0,2013-03-27 10:55:00
7:15 AM,32.0,23.9,72,29.82,10.0,Calm,Calm,-,N/A,,Clear,0,2013-03-27 11:15:00
7:35 AM,31.1,24.4,76,29.82,10.0,Calm,Calm,-,N/A,,Clear,0,2013-03-27 11:35:00
7:55 AM,34.2,26.2,73,29.82,10.0,Calm,Calm,-,N/A,,Scattered Clouds,0,2013-03-27 11:55:00
8:15 AM,34.2,25.5,71,29.83,10.0,Calm,Calm,-,N/A,,Clear,0,2013-03-27 12:15:00
8:35 AM,34.2,25.2,70,29.83,10.0,Calm,Calm,-,N/A,,Clear,0,2013-03-27 12:35:00
8:55 AM,36.1,27.3,70,29.84,10.0,North,3.5,-,N/A,,Mostly Cloudy,360,2013-03-27 12:55:00
9:15 AM,36.9,26.6,66,29.84,10.0,Calm,Calm,-,N/A,,Overcast,0,2013-03-27 13:15:00
9:55 AM,39.2,27.7,63,29.85,10.0,North,5.8,-,N/A,,Overcast,360,2013-03-27 13:55:00
10:15 AM,39.2,26.6,61,29.85,10.0,North,3.5,-,N/A,,Overcast,10,2013-03-27 14:15:00
10:35 AM,41.4,27.3,57,29.85,10.0,NNW,3.5,-,N/A,,Overcast,340,2013-03-27 14:35:00
10:55 AM,41.9,27.3,56,29.85,10.0,WNW,5.8,-,N/A,,Overcast,300,2013-03-27 14:55:00
11:15 AM,42.1,28.0,58,29.85,10.0,West,5.8,-,N/A,,Overcast,280,2013-03-27 15:15:00
11:35 AM,43.2,28.2,56,29.85,10.0,Calm,Calm,-,N/A,,Overcast,0,2013-03-27 15:35:00
11:55 AM,42.3,27.7,56,29.85,10.0,North,4.6,-,N/A,,Mostly Cloudy,350,2013-03-27 15:55:00
12:15 PM,46.8,30.4,53,29.85,10.0,NNW,6.9,-,N/A,,Scattered Clouds,340,2013-03-27 16:15:00
12:35 PM,44.2,28.4,54,29.85,10.0,NW,6.9,-,N/A,,Mostly Cloudy,320,2013-03-27 16:35:00
12:55 PM,44.2,28.6,54,29.85,10.0,NNW,4.6,-,N/A,,Scattered Clouds,340,2013-03-27 16:55:00
1:15 PM,44.2,28.2,53,29.85,10.0,NNW,4.6,-,N/A,,Scattered Clouds,340,2013-03-27 17:15:00
1:35 PM,46.8,30.6,53,29.85,10.0,North,9.2,-,N/A,,Mostly Cloudy,360,2013-03-27 17:35:00
1:55 PM,45.9,29.7,53,29.85,10.0,North,4.6,-,N/A,,Mostly Cloudy,350,2013-03-27 17:55:00
2:15 PM,44.2,28.4,54,29.85,10.0,NNW,8.1,-,N/A,,Scattered Clouds,330,2013-03-27 18:15:00
2:35 PM,44.4,28.6,54,29.85,10.0,North,9.2,-,N/A,,Mostly Cloudy,360,2013-03-27 18:35:00
2:55 PM,46.8,30.0,52,29.85,10.0,North,6.9,-,N/A,,Overcast,350,2013-03-27 18:55:00
3:15 PM,46.6,28.9,50,29.85,10.0,North,8.1,-,N/A,,Overcast,350,2013-03-27 19:15:00
3:35 PM,45.1,27.7,50,29.85,10.0,NNW,8.1,-,N/A,,Overcast,340,2013-03-27 19:35:00
3:55 PM,44.2,27.1,51,29.86,10.0,NNW,6.9,-,N/A,,Overcast,330,2013-03-27 19:55:00
4:15 PM,45.3,28.0,51,29.86,10.0,NW,3.5,-,N/A,,Overcast,320,2013-03-27 20:15:00
4:35 PM,46.8,28.4,49,29.86,10.0,North,6.9,-,N/A,,Mostly Cloudy,350,2013-03-27 20:35:00
4:55 PM,46.6,27.9,48,29.87,10.0,NW,5.8,-,N/A,,Mostly Cloudy,320,2013-03-27 20:55:00
5:15 PM,44.2,26.6,50,29.87,10.0,North,4.6,-,N/A,,Mostly Cloudy,350,2013-03-27 21:15:00
5:35 PM,43.3,26.4,51,29.88,10.0,NW,3.5,-,N/A,,Overcast,320,2013-03-27 21:35:00
5:55 PM,43.0,26.6,52,29.89,10.0,NW,4.6,-,N/A,,Overcast,320,2013-03-27 21:55:00
6:15 PM,42.6,26.6,53,29.89,10.0,NW,5.8,-,N/A,,Overcast,320,2013-03-27 22:15:00
6:35 PM,41.9,26.6,55,29.90,10.0,NNW,5.8,-,N/A,,Overcast,340,2013-03-27 22:35:00
6:55 PM,41.9,27.1,56,29.90,10.0,NW,4.6,-,N/A,,Overcast,310,2013-03-27 22:55:00
7:15 PM,41.7,27.5,57,29.91,10.0,Calm,Calm,-,N/A,,Overcast,0,2013-03-27 23:15:00
7:35 PM,41.2,27.5,58,29.92,10.0,North,5.8,-,N/A,,Light Drizzle,350,2013-03-27 23:35:00
7:55 PM,40.5,27.1,59,29.92,10.0,NNW,3.5,-,N/A,,Overcast,330,2013-03-27 23:55:00
8:15 PM,40.5,27.3,59,29.92,10.0,Calm,Calm,-,N/A,,Drizzle,0,2013-03-28 00:15:00
8:35 PM,40.5,27.5,60,29.93,10.0,West,5.8,-,N/A,,Light Drizzle,280,2013-03-28 00:35:00
8:55 PM,40.5,27.3,59,29.93,10.0,NNW,3.5,-,N/A,,Light Drizzle,330,2013-03-28 00:55:00
9:15 PM,40.3,28.6,63,29.94,10.0,NNW,3.5,-,N/A,,Drizzle,340,2013-03-28 01:15:00
9:35 PM,39.2,28.6,66,29.94,10.0,WNW,3.5,-,N/A,,Light Drizzle,300,2013-03-28 01:35:00
9:55 PM,39.2,28.4,65,29.94,10.0,NNW,4.6,-,N/A,,Overcast,330,2013-03-28 01:55:00
10:15 PM,39.2,28.4,65,29.94,10.0,Calm,Calm,-,N/A,,Overcast,0,2013-03-28 02:15:00
10:35 PM,39.2,28.2,65,29.94,10.0,Calm,Calm,-,N/A,,Overcast,0,2013-03-28 02:35:00
10:55 PM,39.2,28.6,66,29.94,10.0,Calm,Calm,-,N/A,,Overcast,0,2013-03-28 02:55:00
11:15 PM,39.2,29.8,69,29.94,10.0,NNW,3.5,-,N/A,,Overcast,330,2013-03-28 03:15:00
11:35 PM,38.3,30.9,75,29.94,10.0,NNW,4.6,-,N/A,,Overcast,330,2013-03-28 03:35:00
11:55 PM,36.9,30.6,78,29.94,10.0,NW,3.5,-,N/A,,Overcast,310,2013-03-28 03:55:00